User: anonymous   Login
Location: Unspecified
(43.4680°N, 87.1740°E)
Time: 10:53:54
(UTC+00:00)
Language:

NOSS 3-3 (C) - Orbit

View from above orbital plane
View from above orbital plane
View from above satellite
View from above satellite

Ground track
Ground track

The orbit data is extracted from the following two-line orbital elements,

1 28541U 05004C   21165.89262754 0.00000000  00000-0  00000-0 0    00
2 28541  63.4082  66.6327 0400735 359.0649   0.9351 13.40813196    04
Epoch (UTC): 14 June 2021 21:25:23
Eccentricity: 0.0400735
inclination: 63.4082°
perigee height: 806 km
apogee height: 1406 km
right ascension of ascending node: 66.6327°
argument of perigee: 359.0649°
revolutions per day: 13.40813196
mean anomaly at epoch: 0.9351°
orbit number at epoch: 0

The dashed part of the orbit path shows where the satellite is in the earth's shadow,  

DLR